When you browse on this site, cookies collect data to enhance your experience and personalize the content and advertising you see.
Visit our Privacy Policy to learn more. By continuing to use the site, you agree to this use of cookies and data.
  • In Germany
  • List of Countries
  • For 7 days
  • Water Temperature
  • Weather Map
  • Weather Widgets
  • user-avatar
    Login

    Hourly Weather Tirana

    Today, 16 September, Monday

    Time Temperature Precipitation Wind Pressure Humidity
    00:00 +23°C° 0 mm 1 mps 757 mmHg 57%
    01:00 +22°C° 0 mm 1 mps 757 mmHg 57%
    02:00 +22°C° 0 mm 1 mps 757 mmHg 57%
    03:00 +22°C° 0 mm 1 mps 757 mmHg 57%
    04:00 +22°C° 0 mm 1 mps 756 mmHg 57%
    05:00 +23°C° 0 mm 1 mps 756 mmHg 53%
    06:00 +24°C° 0 mm 1 mps 756 mmHg 49%
    07:00 +25°C° 0 mm 1 mps 756 mmHg 45%
    08:00 +27°C° 0 mm 2 mps 756 mmHg 41%
    09:00 +29°C° 0 mm 2 mps 756 mmHg 37%
    10:00 +31°C° 0 mm 2 mps 756 mmHg 33%
    11:00 +31°C° 0 mm 3 mps 755 mmHg 33%
    12:00 +33°C° 0 mm 4 mps 755 mmHg 33%
    13:00 +33°C° 0 mm 4 mps 755 mmHg 33%
    14:00 +32°C° 0 mm 4 mps 754 mmHg 36%
    15:00 +30°C° 0 mm 4 mps 754 mmHg 39%
    16:00 +29°C° 0 mm 4 mps 754 mmHg 42%
    17:00 +27°C° 0 mm 3 mps 754 mmHg 53%
    18:00 +25°C° 0 mm 3 mps 754 mmHg 64%
    19:00 +23°C° 0 mm 2 mps 754 mmHg 75%
    20:00 +22°C° 0 mm 1 mps 754 mmHg 74%
    21:00 +22°C° 0 mm 1 mps 754 mmHg 73%
    22:00 +22°C° 0 mm 1 mps 755 mmHg 73%
    23:00 +21°C° 0 mm 1 mps 755 mmHg 72%

    Tomorrow, 17 September, Tuesday

    Time Temperature Precipitation Wind Pressure Humidity
    00:00 +21°C° 0 mm 1 mps 755 mmHg 71%
    01:00 +21°C° 0 mm 1 mps 754 mmHg 70%
    02:00 +21°C° 0 mm 1 mps 754 mmHg 71%
    03:00 +20°C° 0 mm 1 mps 754 mmHg 71%
    04:00 +20°C° 0 mm 1 mps 754 mmHg 71%
    05:00 +21°C° 0 mm 1 mps 754 mmHg 66%
    06:00 +22°C° 0 mm 1 mps 754 mmHg 60%
    07:00 +24°C° 0 mm 1 mps 754 mmHg 54%
    08:00 +26°C° 0 mm 1 mps 754 mmHg 48%
    09:00 +28°C° 0 mm 1 mps 754 mmHg 42%
    10:00 +30°C° 0 mm 1 mps 754 mmHg 36%
    11:00 +30°C° 0 mm 2 mps 754 mmHg 36%
    12:00 +31°C° 0 mm 3 mps 753 mmHg 35%
    13:00 +33°C° 0 mm 4 mps 753 mmHg 35%
    14:00 +31°C° 0 mm 3 mps 753 mmHg 38%
    15:00 +30°C° 0 mm 3 mps 752 mmHg 40%
    16:00 +29°C° 0 mm 3 mps 752 mmHg 43%
    17:00 +27°C° 0 mm 2 mps 752 mmHg 52%
    18:00 +25°C° 0 mm 2 mps 753 mmHg 62%
    19:00 +23°C° 0 mm 1 mps 753 mmHg 71%
    20:00 +22°C° 0 mm 1 mps 753 mmHg 70%
    21:00 +22°C° 0 mm 1 mps 753 mmHg 70%
    22:00 +22°C° 0 mm 1 mps 753 mmHg 69%
    23:00 +21°C° 0 mm 1 mps 753 mmHg 69%

    Day after tomorrow, 18 September, Wednesday

    Time Temperature Precipitation Wind Pressure Humidity
    00:00 +21°C° 0 mm 1 mps 753 mmHg 69%
    01:00 +21°C° 0 mm 1 mps 753 mmHg 68%
    02:00 +21°C° 0 mm 1 mps 752 mmHg 68%
    03:00 +20°C° 0 mm 1 mps 752 mmHg 68%
    04:00 +19°C° 0 mm 2 mps 752 mmHg 68%
    05:00 +20°C° 0 mm 2 mps 752 mmHg 62%
    06:00 +23°C° 0 mm 2 mps 752 mmHg 56%
    07:00 +24°C° 0 mm 2 mps 753 mmHg 51%
    08:00 +26°C° 0 mm 2 mps 753 mmHg 44%
    09:00 +28°C° 0 mm 2 mps 753 mmHg 38%
    10:00 +30°C° 0 mm 1 mps 753 mmHg 31%
    11:00 +31°C° 0 mm 2 mps 753 mmHg 31%
    12:00 +31°C° 0 mm 3 mps 753 mmHg 32%
    13:00 +33°C° 0 mm 3 mps 753 mmHg 32%
    14:00 +31°C° 0 mm 3 mps 752 mmHg 34%
    15:00 +30°C° 0 mm 3 mps 752 mmHg 37%
    16:00 +30°C° 0 mm 3 mps 752 mmHg 39%
    17:00 +27°C° 0 mm 3 mps 753 mmHg 47%
    18:00 +25°C° 0 mm 3 mps 753 mmHg 54%
    19:00 +23°C° 0 mm 2 mps 753 mmHg 61%
    20:00 +23°C° 0 mm 2 mps 754 mmHg 60%
    21:00 +23°C° 0 mm 2 mps 754 mmHg 59%
    22:00 +23°C° 0 mm 2 mps 754 mmHg 59%
    23:00 +21°C° 0 mm 2 mps 754 mmHg 59%

    19 September, Thursday

    Time Temperature Precipitation Wind Pressure Humidity
    00:00 +21°C° 0 mm 2 mps 754 mmHg 59%
    01:00 +21°C° 0 mm 2 mps 754 mmHg 59%
    02:00 +21°C° 0 mm 2 mps 754 mmHg 59%
    03:00 +20°C° 0 mm 2 mps 754 mmHg 59%
    04:00 +20°C° 0 mm 2 mps 754 mmHg 58%
    05:00 +21°C° 0 mm 2 mps 753 mmHg 55%
    06:00 +23°C° 0 mm 2 mps 753 mmHg 51%
    07:00 +24°C° 0 mm 2 mps 753 mmHg 47%
    08:00 +26°C° 0 mm 2 mps 754 mmHg 43%
    09:00 +28°C° 0 mm 3 mps 754 mmHg 38%
    10:00 +30°C° 0 mm 3 mps 754 mmHg 33%
    11:00 +30°C° 0 mm 3 mps 754 mmHg 34%
    12:00 +30°C° 0 mm 4 mps 754 mmHg 34%
    13:00 +29°C° 0 mm 4 mps 754 mmHg 35%
    14:00 +29°C° 0 mm 4 mps 754 mmHg 35%
    15:00 +29°C° 0 mm 4 mps 754 mmHg 35%
    16:00 +29°C° 0 mm 4 mps 754 mmHg 35%
    17:00 +27°C° 0 mm 4 mps 754 mmHg 43%
    18:00 +25°C° 0 mm 4 mps 754 mmHg 51%
    19:00 +22°C° 0 mm 4 mps 755 mmHg 58%
    20:00 +22°C° 0 mm 4 mps 755 mmHg 59%
    21:00 +21°C° 0 mm 4 mps 755 mmHg 60%
    22:00 +21°C° 0 mm 4 mps 755 mmHg 60%
    23:00 +21°C° 0.1 mm 4 mps 755 mmHg 61%

    20 September, Friday

    Time Temperature Precipitation Wind Pressure Humidity
    00:00 +20°C° 0.1 mm 4 mps 755 mmHg 61%
    01:00 +20°C° 0.1 mm 4 mps 756 mmHg 61%
    02:00 +20°C° 0.1 mm 4 mps 755 mmHg 62%
    03:00 +19°C° 0.1 mm 4 mps 755 mmHg 63%
    04:00 +19°C° 0.1 mm 4 mps 755 mmHg 63%
    05:00 +20°C° 0 mm 4 mps 755 mmHg 60%
    06:00 +20°C° 0 mm 4 mps 755 mmHg 56%
    07:00 +21°C° 0 mm 5 mps 756 mmHg 52%
    08:00 +23°C° 0 mm 5 mps 756 mmHg 46%
    09:00 +26°C° 0 mm 5 mps 756 mmHg 40%
    10:00 +29°C° 0 mm 5 mps 756 mmHg 33%
    11:00 +29°C° 0 mm 6 mps 756 mmHg 32%
    12:00 +30°C° 0 mm 7 mps 756 mmHg 30%
    13:00 +32°C° 0 mm 7 mps 756 mmHg 28%
    14:00 +32°C° 0 mm 7 mps 756 mmHg 28%
    15:00 +31°C° 0 mm 8 mps 756 mmHg 28%
    16:00 +31°C° 0 mm 8 mps 756 mmHg 28%
    17:00 +27°C° 0 mm 7 mps 756 mmHg 31%
    18:00 +24°C° 0 mm 7 mps 757 mmHg 34%
    19:00 +22°C° 0 mm 7 mps 757 mmHg 37%
    20:00 +21°C° 0 mm 7 mps 758 mmHg 37%
    21:00 +20°C° 0 mm 6 mps 758 mmHg 38%
    22:00 +19°C° 0 mm 6 mps 758 mmHg 38%
    23:00 +19°C° 0 mm 6 mps 759 mmHg 36%

    21 September, Saturday

    Time Temperature Precipitation Wind Pressure Humidity
    00:00 +17°C° 0 mm 5 mps 759 mmHg 33%
    01:00 +16°C° 0 mm 5 mps 759 mmHg 31%
    02:00 +16°C° 0 mm 5 mps 759 mmHg 31%
    03:00 +15°C° 0 mm 5 mps 759 mmHg 31%
    04:00 +15°C° 0 mm 5 mps 759 mmHg 31%
    05:00 +17°C° 0 mm 4 mps 759 mmHg 30%
    06:00 +18°C° 0 mm 4 mps 759 mmHg 29%
    07:00 +18°C° 0 mm 4 mps 759 mmHg 28%
    08:00 +21°C° 0 mm 4 mps 760 mmHg 25%
    09:00 +25°C° 0 mm 3 mps 760 mmHg 22%
    10:00 +27°C° 0 mm 3 mps 760 mmHg 20%
    11:00 +28°C° 0 mm 3 mps 760 mmHg 20%
    12:00 +29°C° 0 mm 4 mps 760 mmHg 21%
    13:00 +30°C° 0 mm 4 mps 760 mmHg 21%
    14:00 +29°C° 0 mm 5 mps 759 mmHg 23%
    15:00 +28°C° 0 mm 5 mps 759 mmHg 24%
    16:00 +27°C° 0 mm 6 mps 759 mmHg 26%
    17:00 +25°C° 0 mm 5 mps 759 mmHg 34%
    18:00 +21°C° 0 mm 4 mps 760 mmHg 43%
    19:00 +19°C° 0 mm 3 mps 760 mmHg 51%
    20:00 +19°C° 0 mm 3 mps 760 mmHg 49%
    21:00 +19°C° 0 mm 2 mps 761 mmHg 48%
    22:00 +18°C° 0 mm 2 mps 761 mmHg 46%
    23:00 +18°C° 0 mm 2 mps 761 mmHg 45%
    Show more